Flag for Sweden Weather past 2 weeks in Karlstad, Sweden

Now
41 °F

Quite cool.


Feels Like: 34 °F
Forecast: 42 / 56 °F
Wind: 12 mph from Southwest

Location: Karlstad

Current Time: May 23, 2015 at 4:59:00 AM

Latest Report: May 23, 2015 at 4:20 AM


Visibility: N/A

Pressure: 29.77 "Hg

Humidity: 87%

Dew point: 37 °F

Location of KarlstadLocation

Historic Weather in Karlstad — Graph

°F

Karlstad temperature yesterday

Maximum temperature yesterday: 52 °F (at 1:50 PM)
Minimum temperature yesterday: 45 °F (at 12:50 AM)
Average temperature yesterday: 49 °F

Past Weeks' High & Low Weather Summary

 TemperatureHumidityPressure
High61 °F (May 21, 5:20 PM)100% (May 10, 1:50 AM)30.15 "Hg (May 10, 1:50 AM)
Low30 °F (May 9, 4:50 AM)27% (May 15, 6:20 PM)29.50 "Hg (May 12, 10:50 PM)
Average47 °F76%29.81 "Hg
* Reported May 8 3:20 AM — May 23 3:20 AM, Karlstad, Weather by CustomWeather, © 2015

Note: Actual official high and low records may vary slightly from our data, if they occured in-between our weather recording intervals... More about our weather records

Advertising

Karlstad weather history for previous 24 hours

 ConditionsComfort  
Time TempWeatherWind HumidityBarometerVisibility
3:20 AM
Sat, May 23
41 °FQuite cool.12 mph87%29.77 "HgN/A
2:50 AM43 °FQuite cool.9 mph87%29.77 "HgN/A
2:20 AM43 °FQuite cool.10 mph87%29.77 "HgN/A
1:50 AM43 °FQuite cool.10 mph93%29.77 "HgN/A
1:20 AM45 °FPassing clouds.14 mph93%29.74 "HgN/A
12:50 AM46 °FPassing clouds.14 mph87%29.74 "HgN/A
12:20 AM46 °FLight rain. Partly cloudy.15 mph93%29.74 "HgN/A
11:50 PM
Fri, May 22
48 °FPartly cloudy.9 mph94%29.74 "HgN/A
11:20 PM48 °FLight rain. Partly cloudy.9 mph94%29.71 "HgN/A
10:50 PM48 °FLight rain. Passing clouds.10 mph94%29.74 "HgN/A
10:20 PM50 °FRain. More clouds than sun.16 mph94%29.74 "HgN/A
9:50 PM50 °FLight rain. Mostly cloudy.15 mph94%29.74 "HgN/A
9:20 PM50 °FLight rain. Partly sunny.15 mph94%29.74 "HgN/A
8:50 PM50 °FLight rain. Partly sunny.17 mph94%29.77 "HgN/A
8:20 PM50 °FLight rain. Partly sunny.16 mph94%29.77 "HgN/A
7:50 PM50 °FRain. Partly sunny.17 mph94%29.80 "Hg4 mi
7:20 PM50 °FPartly sunny.20 mph94%29.80 "HgN/A
6:50 PM50 °FPartly sunny.20 mph94%29.83 "HgN/A
6:20 PM50 °FPartly sunny.20 mph94%29.83 "HgN/A
5:50 PM50 °FDrizzle. Partly sunny.18 mph94%29.86 "HgN/A
5:20 PM50 °FDrizzle. Partly sunny.21 mph94%29.86 "HgN/A
4:50 PM52 °FPartly sunny.22 mph88%29.89 "HgN/A
4:20 PM52 °FSprinkles. Partly sunny.21 mph88%29.89 "HgN/A
3:50 PM52 °FBroken clouds.21 mph88%29.92 "HgN/A
3:20 PM52 °FOvercast.18 mph82%29.92 "HgN/A
2:50 PM52 °FOvercast.15 mph82%29.95 "HgN/A
2:20 PM52 °FPartly sunny.17 mph77%29.95 "HgN/A
1:50 PM52 °FPartly sunny.16 mph82%29.95 "HgN/A
1:20 PM50 °FPartly sunny.14 mph88%29.95 "HgN/A
12:50 PM50 °FPartly sunny.18 mph88%29.98 "HgN/A
12:20 PM50 °FPartly sunny.16 mph88%29.98 "HgN/A
11:50 AM50 °FPartly sunny.16 mph82%29.98 "HgN/A
11:20 AM50 °FPartly sunny.16 mph82%30.01 "HgN/A
10:50 AM50 °FPartly sunny.17 mph82%30.01 "HgN/A
10:20 AM50 °FPartly sunny.16 mph76%30.01 "HgN/A
9:50 AM50 °FPartly sunny.17 mph76%30.01 "HgN/A
9:20 AM50 °FPartly sunny.15 mph82%30.01 "HgN/A
8:50 AM50 °FPartly sunny.16 mph82%30.01 "HgN/A
8:20 AM48 °FPartly sunny.15 mph87%30.01 "HgN/A
7:50 AM48 °FPartly sunny.12 mph87%30.01 "HgN/A
7:20 AM48 °FBroken clouds.13 mph82%30.01 "HgN/A
6:50 AM48 °FPartly sunny.14 mph82%30.01 "HgN/A
6:20 AM46 °FSunny.10 mph87%30.01 "Hg10 mi
5:50 AM46 °FSunny.9 mph87%30.04 "Hg10 mi
5:20 AM45 °FQuite cool.9 mph93%30.01 "HgN/A
4:50 AM45 °FPassing clouds.10 mph93%30.01 "HgN/A
4:20 AM45 °FPassing clouds.9 mph93%30.04 "HgN/A
Weather by CustomWeather, © 2015

See weather overviewHow to use our weather pages